Regional Weather Roundup
Issued by NWS

Home | Current Version | Previous Version | Graphics & Text | Print | Product List | Glossary On
Versions: 1 2 3 4 5 6 7 8 9 10 11 12 13 14 15 16 17 18 19 20 21 22 23 24 25 26 27 28 29 30 31 32 33 34 35 36 37 38 39 40 41 42 43 44 45 46 47 48 49 50
000
ASUS43 KFSD 241602
RWRSD

WEATHER ROUNDUP FOR SOUTH DAKOTA
NATIONAL WEATHER SERVICE SIOUX FALLS SD
1000 AM CST SAT JAN 24 2015

NOTE: "FAIR" INDICATES FEW OR NO CLOUDS BELOW 12,000 FEET WITH NO
SIGNIFICANT WEATHER AND/OR OBSTRUCTIONS TO VISIBILITY.


SDZ001>005-009-010-012>017-241700-
NORTHWEST AND NORTH CENTRAL SOUTH DAKOTA

CITY           SKY/WX    TMP DP  RH WIND       PRES   REMARKS
BUFFALO          N/A     44  32  62 W21       29.68F
FAITH            N/A     42  26  53 W14       29.74F
MOBRIDGE       CLOUDY    37  31  78 CALM      29.68F
$$

SDZ012>016-024>037-041>051-057-063-072>074-241700-
SOUTHWEST AND SOUTH CENTRAL SOUTH DAKOTA

CITY           SKY/WX    TMP DP  RH WIND       PRES   REMARKS
RAPID CTY ARPT CLOUDY    41  28  60 CALM      29.83S
PIERRE         CLOUDY    38  28  67 SW9       29.75F
CUSTER         PTSUNNY   40  27  59 NW16G33   29.88S
PHILIP         CLOUDY    40  27  59 W16       29.80F
PINE RIDGE     CLOUDY    39  25  57 W13       29.91F
WINNER         FAIR      46  27  47 W16       29.80F
$$

SDZ004>011-016>023-039-040-241700-
NORTHEAST SOUTH DAKOTA

CITY           SKY/WX    TMP DP  RH WIND       PRES   REMARKS
ABERDEEN       CLOUDY    33  29  85 S5        29.69F WCI  29
WATERTOWN      MOSUNNY   33  28  81 W6        29.68F WCI  28
SISSETON         N/A     35  30  82 NW14      29.66S WCI  26
$$

SDZ017-020-022-023-036>040-048>070-241700-
SOUTHEAST SOUTH DAKOTA

CITY           SKY/WX    TMP DP  RH WIND       PRES   REMARKS
SIOUX FALLS    CLOUDY    36  29  75 W7        29.75F
HURON          CLOUDY    35  30  82 W9        29.73F WCI  28
MITCHELL       CLOUDY    37  29  72 W12       29.77F
YANKTON        PTSUNNY   39  28  65 SW10      29.80S
$$

ABBREVIATIONS USED IN REMARKS
   TC - TEMPERATURE IN CELSIUS
  WCI - WIND CHILL INDEX
   HX - HEAT INDEX
  VSB - VISIBILITY




USA.gov is the U.S. government's official web portal to all federal, state and local government web resources and services.